| time (UTC) | temp F | wind direction | speed knots | gust knots | rain 1hr in | rain 24hr in | rain mn in | humidity % | barometer mb |
| 20260506203535 | 60 | 87 | 0.9 | 2.6 | 0.00 | 0.72 | 0.72 | 82 | 1011.8 |
| 20260506202635 | 60 | 334 | 1.7 | 2.6 | 0.00 | 0.72 | 0.72 | 83 | 1011.7 |
| 20260506201735 | 60 | 336 | 0.9 | 2.6 | 0.00 | 0.72 | 0.72 | 82 | 1011.8 |
| 20260506200835 | 60 | 127 | 0.0 | 0.9 | 0.00 | 0.72 | 0.72 | 82 | 1011.6 |
| 20260506195935 | 60 | 75 | 2.6 | 4.3 | 0.00 | 0.72 | 0.72 | 82 | 1011.5 |
| 20260506195350 | 60 | 131 | 3.5 | 5.2 | 0.00 | 0.72 | 0.72 | 82 | 1011.5 |
| 20260506194435 | 60 | 67 | 0.0 | 1.7 | 0.00 | 0.72 | 0.72 | 82 | 1011.3 |
| 20260506193542 | 60 | 170 | 3.5 | 6.1 | 0.00 | 0.72 | 0.72 | 83 | 1011.3 |
| 20260506192717 | 60 | 144 | 1.7 | 4.3 | 0.00 | 0.72 | 0.72 | 83 | 1011.2 |
| 20260506191757 | 60 | 44 | 0.9 | 2.6 | 0.00 | 0.72 | 0.72 | 83 | 1011.1 |
| 20260506190836 | 60 | 107 | 0.0 | 0.9 | 0.00 | 0.72 | 0.72 | 83 | 1010.9 |
| 20260506185935 | 60 | 61 | 0.9 | 2.6 | 0.00 | 0.72 | 0.72 | 84 | 1010.8 |
| 20260506185335 | 60 | 266 | 1.7 | 3.5 | 0.00 | 0.72 | 0.72 | 84 | 1010.7 |
| 20260506184436 | 60 | 5 | 1.7 | 4.3 | 0.00 | 0.72 | 0.72 | 84 | 1010.7 |
| 20260506183535 | 60 | 16 | 1.7 | 3.5 | 0.00 | 0.72 | 0.72 | 85 | 1010.5 |
| 20260506182637 | 60 | 297 | 0.9 | 1.7 | 0.00 | 0.72 | 0.72 | 86 | 1010.5 |
| 20260506181735 | 60 | 22 | 2.6 | 5.2 | 0.00 | 0.72 | 0.72 | 85 | 1010.3 |
| 20260506180834 | 60 | 160 | 1.7 | 4.3 | 0.00 | 0.72 | 0.72 | 85 | 1010.2 |
| 20260506175935 | 60 | 48 | 4.3 | 7.8 | 0.00 | 0.72 | 0.72 | 85 | 1010.0 |
| 20260506175335 | 60 | 110 | 4.3 | 7.0 | 0.00 | 0.72 | 0.72 | 85 | 1010.0 |
| 20260506174435 | 61 | 348 | 2.6 | 6.1 | 0.00 | 0.72 | 0.72 | 85 | 1010.0 |
| 20260506173534 | 61 | 41 | 2.6 | 4.3 | 0.00 | 0.72 | 0.72 | 84 | 1009.9 |
| 20260506172635 | 61 | 315 | 3.5 | 5.2 | 0.00 | 0.72 | 0.72 | 83 | 1009.8 |
| 20260506171734 | 61 | 16 | 6.1 | 7.8 | 0.00 | 0.72 | 0.72 | 83 | 1009.8 |
| 20260506170834 | 62 | 29 | 3.5 | 7.0 | 0.00 | 0.72 | 0.72 | 82 | 1009.8 |
| 20260506165956 | 62 | 352 | 0.9 | 2.6 | 0.00 | 0.72 | 0.72 | 82 | 1009.7 |
| 20260506165335 | 63 | 87 | 0.9 | 1.7 | 0.00 | 0.72 | 0.72 | 81 | 1009.6 |
| 20260506164435 | 63 | 257 | 0.9 | 2.6 | 0.00 | 0.72 | 0.72 | 82 | 1009.7 |
| 20260506163535 | 62 | 347 | 1.7 | 3.5 | 0.00 | 0.72 | 0.72 | 83 | 1009.8 |
| 20260506162634 | 62 | 24 | 0.0 | 0.9 | 0.00 | 0.72 | 0.72 | 82 | 1009.8 |
| 20260506161735 | 63 | 60 | 3.5 | 6.1 | 0.00 | 0.72 | 0.72 | 82 | 1009.7 |
| 20260506160835 | 63 | 338 | 2.6 | 5.2 | 0.00 | 0.72 | 0.72 | 83 | 1009.7 |
| 20260506155934 | 63 | 354 | 0.9 | 2.6 | 0.00 | 0.72 | 0.72 | 82 | 1009.7 |
| 20260506155334 | 63 | 34 | 0.9 | 3.5 | 0.00 | 0.72 | 0.72 | 82 | 1009.6 |
| 20260506154435 | 64 | 270 | 0.9 | 1.7 | 0.00 | 0.72 | 0.72 | 81 | 1009.7 |
| 20260506153549 | 64 | 191 | 3.5 | 6.1 | 0.00 | 0.72 | 0.72 | 81 | 1009.7 |
| 20260506152635 | 65 | 169 | 4.3 | 6.1 | 0.00 | 0.72 | 0.72 | 80 | 1009.6 |
| 20260506151734 | 66 | 234 | 2.6 | 6.1 | 0.00 | 0.72 | 0.72 | 80 | 1009.6 |
| 20260506150834 | 65 | 225 | 4.3 | 7.8 | 0.00 | 0.72 | 0.72 | 81 | 1009.6 |
| 20260506145936 | 66 | 254 | 1.7 | 4.3 | 0.00 | 0.72 | 0.72 | 79 | 1009.6 |
| 20260506145335 | 66 | 245 | 5.2 | 7.8 | 0.00 | 0.72 | 0.72 | 79 | 1009.4 |
| 20260506144456 | 66 | 24 | 2.6 | 6.1 | 0.00 | 0.72 | 0.72 | 80 | 1009.5 |
| 20260506143534 | 64 | 150 | 1.7 | 4.3 | 0.00 | 0.72 | 0.72 | 82 | 1009.5 |
| 20260506142634 | 64 | 52 | 2.6 | 7.0 | 0.00 | 0.72 | 0.72 | 80 | 1009.5 |
| 20260506141737 | 65 | 224 | 2.6 | 5.2 | 0.00 | 0.72 | 0.72 | 79 | 1009.6 |
| 20260506140838 | 65 | 214 | 4.3 | 6.1 | 0.00 | 0.72 | 0.72 | 82 | 1009.6 |
| 20260506135935 | 66 | 349 | 0.9 | 4.3 | 0.00 | 0.72 | 0.72 | 80 | 1009.7 |
| 20260506135336 | 66 | 171 | 5.2 | 10.4 | 0.00 | 0.72 | 0.72 | 79 | 1009.7 |
| 20260506134435 | 66 | 296 | 1.7 | 2.6 | 0.00 | 0.72 | 0.72 | 78 | 1009.8 |
| 20260506133534 | 66 | 235 | 5.2 | 10.4 | 0.00 | 0.72 | 0.72 | 80 | 1009.8 |
| 20260506132634 | 65 | 214 | 4.3 | 10.4 | 0.00 | 0.72 | 0.72 | 80 | 1009.8 |
| 20260506131755 | 66 | 198 | 4.3 | 8.7 | 0.00 | 0.72 | 0.72 | 81 | 1009.9 |
| 20260506130834 | 65 | 238 | 5.2 | 7.8 | 0.00 | 0.72 | 0.72 | 83 | 1009.7 |
| 20260506125935 | 65 | 208 | 2.6 | 5.2 | 0.00 | 0.72 | 0.72 | 82 | 1009.8 |
| 20260506125335 | 64 | 246 | 1.7 | 3.5 | 0.00 | 0.72 | 0.72 | 83 | 1009.8 |
| 20260506124434 | 65 | 176 | 3.5 | 6.1 | 0.00 | 0.72 | 0.72 | 85 | 1009.8 |
| 20260506123534 | 64 | 249 | 4.3 | 7.8 | 0.00 | 0.72 | 0.72 | 85 | 1009.6 |
| 20260506122655 | 64 | 228 | 4.3 | 7.0 | 0.00 | 0.72 | 0.72 | 86 | 1009.5 |
| 20260506121734 | 64 | 231 | 3.5 | 7.0 | 0.00 | 0.72 | 0.72 | 85 | 1009.5 |
| 20260506120835 | 64 | 218 | 1.7 | 3.5 | 0.00 | 0.72 | 0.72 | 87 | 1009.4 |
| 20260506115934 | 63 | 254 | 2.6 | 3.5 | 0.00 | 0.72 | 0.72 | 87 | 1009.4 |
| 20260506115335 | 63 | 265 | 0.9 | 1.7 | 0.00 | 0.72 | 0.72 | 87 | 1009.4 |
| 20260506114434 | 63 | 134 | 1.7 | 4.3 | 0.00 | 0.72 | 0.72 | 87 | 1009.4 |
| 20260506113535 | 63 | 250 | 3.5 | 5.2 | 0.00 | 0.72 | 0.72 | 87 | 1009.4 |
| 20260506112635 | 63 | 168 | 4.3 | 7.0 | 0.00 | 0.72 | 0.72 | 86 | 1009.4 |
| 20260506111737 | 63 | 226 | 5.2 | 8.7 | 0.00 | 0.72 | 0.72 | 86 | 1009.3 |
| 20260506110835 | 63 | 217 | 3.5 | 5.2 | 0.00 | 0.72 | 0.72 | 86 | 1009.4 |
| 20260506105935 | 63 | 231 | 4.3 | 7.0 | 0.00 | 0.72 | 0.72 | 86 | 1009.4 |
| 20260506105355 | 63 | 159 | 5.2 | 7.8 | 0.00 | 0.72 | 0.72 | 86 | 1009.6 |
| 20260506104435 | 64 | 224 | 3.5 | 7.0 | 0.00 | 0.72 | 0.72 | 85 | 1009.4 |
| 20260506103555 | 64 | 244 | 2.6 | 5.2 | 0.00 | 0.72 | 0.72 | 84 | 1009.4 |
| 20260506102635 | 64 | 88 | 2.6 | 5.2 | 0.00 | 0.72 | 0.72 | 84 | 1009.4 |
| 20260506101756 | 64 | 0 | 0.0 | 0.0 | 0.00 | 0.72 | 0.72 | 85 | 1009.3 |
| 20260506100835 | 64 | 92 | 3.5 | 7.0 | 0.00 | 0.72 | 0.72 | 84 | 1009.2 |
| 20260506095935 | 64 | 63 | 3.5 | 8.7 | 0.00 | 0.72 | 0.72 | 85 | 1009.4 |
| 20260506095335 | 64 | 136 | 2.6 | 5.2 | 0.00 | 0.72 | 0.72 | 85 | 1009.4 |
| 20260506094435 | 64 | 38 | 1.7 | 5.2 | 0.00 | 0.72 | 0.72 | 86 | 1009.3 |
| 20260506093535 | 64 | 237 | 3.5 | 6.1 | 0.00 | 0.73 | 0.72 | 87 | 1009.3 |
| 20260506092635 | 62 | 48 | 0.9 | 1.7 | 0.00 | 0.73 | 0.72 | 89 | 1009.3 |
| 20260506091735 | 61 | 242 | 1.7 | 3.5 | 0.00 | 0.73 | 0.72 | 90 | 1009.2 |
| 20260506090837 | 61 | 220 | 1.7 | 3.5 | 0.00 | 0.73 | 0.72 | 90 | 1009.2 |
| 20260506085934 | 60 | 213 | 1.7 | 2.6 | 0.00 | 0.73 | 0.72 | 92 | 1009.1 |
| 20260506085355 | 60 | 215 | 2.6 | 6.1 | 0.00 | 0.73 | 0.72 | 93 | 1009.1 |
| 20260506084434 | 60 | 195 | 3.5 | 4.3 | 0.00 | 0.73 | 0.72 | 96 | 1008.9 |
| 20260506083556 | 60 | 195 | 3.5 | 5.2 | 0.00 | 0.73 | 0.72 | 96 | 1008.8 |
| 20260506082635 | 60 | 214 | 2.6 | 4.3 | 0.00 | 0.73 | 0.72 | 96 | 1008.8 |
| 20260506081756 | 60 | 216 | 5.2 | 8.7 | 0.00 | 0.73 | 0.72 | 96 | 1008.6 |
| 20260506080835 | 61 | 214 | 3.5 | 6.1 | 0.00 | 0.73 | 0.72 | 97 | 1008.5 |
| 20260506072635 | 61 | 209 | 7.0 | 12.2 | 0.09 | 0.73 | 0.72 | 97 | 1008.3 |
| 20260506071735 | 61 | 221 | 7.8 | 13.0 | 0.09 | 0.73 | 0.72 | 97 | 1008.0 |
| 20260506070834 | 61 | 213 | 7.8 | 15.6 | 0.09 | 0.73 | 0.72 | 96 | 1008.0 |
| 20260506061735 | 60 | 93 | 3.5 | 9.6 | 0.00 | 0.70 | 0.63 | 95 | 1007.7 |
| 20260506060834 | 59 | 137 | 3.5 | 6.1 | 0.00 | 0.75 | 0.63 | 95 | 1007.8 |
| 20260506050835 | 56 | 0 | 0.0 | 0.0 | 0.03 | 1.17 | 0.63 | 95 | 1008.1 |
| 20260506044436 | 56 | 12 | 0.9 | 2.6 | 0.06 | 1.24 | 0.63 | 94 | 1007.9 |
| 20260506043535 | 56 | 0 | 0.0 | 0.0 | 0.06 | 1.31 | 0.63 | 94 | 1008.2 |
| 20260506042635 | 56 | 357 | 1.7 | 2.6 | 0.06 | 1.39 | 0.63 | 93 | 1008.3 |
| 20260506041756 | 56 | 355 | 3.5 | 6.1 | 0.06 | 1.44 | 0.62 | 93 | 1008.5 |
| 20260506040834 | 56 | 10 | 0.9 | 0.9 | 0.03 | 1.49 | 0.60 | 93 | 1009.0 |
| 20260506035935 | 56 | 25 | 0.9 | 0.9 | 0.02 | 1.57 | 0.58 | 93 | 1008.8 |
| 20260506035355 | 56 | 0 | 0.0 | 0.0 | 0.01 | 1.57 | 0.57 | 93 | 1008.9 |
| 20260506034435 | 56 | 15 | 2.6 | 4.3 | 0.01 | 1.61 | 0.57 | 93 | 1008.7 |
| 20260506033555 | 55 | 0 | 0.0 | 0.0 | 0.02 | 1.65 | 0.57 | 93 | 1008.5 |
| 20260506032634 | 55 | 303 | 0.0 | 0.9 | 0.02 | 1.67 | 0.57 | 94 | 1008.5 |
| 20260506031735 | 55 | 129 | 1.7 | 3.5 | 0.03 | 1.71 | 0.57 | 94 | 1008.4 |
| 20260506030835 | 55 | 339 | 2.6 | 8.7 | 0.06 | 1.76 | 0.57 | 94 | 1008.6 |
| 20260506025935 | 55 | 288 | 0.9 | 1.7 | 0.07 | 1.77 | 0.57 | 94 | 1008.8 |
| 20260506025355 | 55 | 342 | 2.6 | 6.1 | 0.09 | 1.78 | 0.57 | 95 | 1008.9 |
| 20260506024455 | 55 | 256 | 0.9 | 1.7 | 0.13 | 1.79 | 0.56 | 95 | 1009.3 |
| 20260506023534 | 55 | 7 | 1.7 | 4.3 | 0.16 | 1.80 | 0.55 | 95 | 1009.6 |
| 20260506022634 | 55 | 0 | 0.0 | 0.0 | 0.21 | 1.82 | 0.55 | 95 | 1009.7 |
| 20260506021738 | 55 | 338 | 0.9 | 4.3 | 0.25 | 1.83 | 0.54 | 94 | 1009.8 |
| 20260506020836 | 55 | 344 | 0.9 | 1.7 | 0.35 | 1.82 | 0.52 | 94 | 1009.9 |
| 20260506015935 | 56 | 342 | 0.9 | 3.5 | 0.35 | 1.82 | 0.50 | 93 | 1010.0 |
| 20260506015356 | 56 | 360 | 1.7 | 7.0 | 0.33 | 1.80 | 0.47 | 93 | 1010.0 |
| 20260506014434 | 57 | 339 | 2.6 | 7.8 | 0.30 | 1.77 | 0.43 | 93 | 1010.4 |
| 20260506013535 | 58 | 233 | 0.9 | 3.5 | 0.27 | 1.74 | 0.39 | 94 | 1010.6 |
| 20260506012635 | 58 | 197 | 1.7 | 1.7 | 0.21 | 1.69 | 0.34 | 94 | 1010.8 |
| 20260506011734 | 58 | 158 | 2.6 | 3.5 | 0.17 | 1.65 | 0.28 | 93 | 1010.5 |
| 20260506010834 | 58 | 7 | 0.0 | 0.9 | 0.05 | 1.54 | 0.16 | 93 | 1010.1 |
| 20260506005956 | 58 | 0 | 0.0 | 0.0 | 0.04 | 1.54 | 0.15 | 93 | 1010.2 |
| 20260506005334 | 58 | 0 | 0.0 | 0.0 | 0.03 | 1.54 | 0.14 | 93 | 1010.1 |
| 20260506004435 | 59 | 63 | 0.0 | 0.9 | 0.02 | 1.55 | 0.13 | 93 | 1010.3 |
| 20260506003542 | 59 | 199 | 1.7 | 3.5 | 0.02 | 1.54 | 0.13 | 93 | 1010.5 |
| 20260506002635 | 59 | 0 | 0.0 | 0.0 | 0.02 | 1.54 | 0.13 | 93 | 1010.3 |
| 20260506001736 | 59 | 0 | 0.0 | 0.0 | 0.01 | 1.54 | 0.12 | 92 | 1010.1 |
| 20260506000856 | 59 | 0 | 0.0 | 0.0 | 0.00 | 1.53 | 0.11 | 91 | 1010.3 |
| 20260505235935 | 60 | 0 | 0.0 | 0.0 | 0.00 | 1.53 | 0.11 | 91 | 1010.4 |
| 20260505235334 | 60 | 334 | 0.9 | 1.7 | 0.00 | 1.53 | 0.11 | 90 | 1010.5 |
| 20260505234435 | 60 | 0 | 0.0 | 0.0 | 0.00 | 1.53 | 0.11 | 90 | 1010.7 |
| 20260505233556 | 60 | 123 | 0.0 | 0.9 | 0.00 | 1.53 | 0.11 | 90 | 1011.1 |
| 20260505232635 | 60 | 0 | 0.0 | 0.0 | 0.00 | 1.53 | 0.11 | 89 | 1011.1 |
| 20260505231736 | 60 | 78 | 0.0 | 0.9 | 0.04 | 1.53 | 0.11 | 89 | 1011.4 |
| 20260505230834 | 60 | 205 | 0.0 | 0.9 | 0.11 | 1.53 | 0.11 | 88 | 1011.5 |
| 20260505225934 | 60 | 137 | 0.9 | 1.7 | 0.11 | 1.53 | 0.11 | 88 | 1011.6 |
| 20260505225334 | 60 | 199 | 0.9 | 1.7 | 0.11 | 1.53 | 0.11 | 87 | 1011.5 |
| 20260505224435 | 60 | 233 | 0.9 | 2.6 | 0.11 | 1.53 | 0.11 | 87 | 1011.6 |
| 20260505223534 | 61 | 177 | 2.6 | 6.1 | 0.11 | 1.53 | 0.11 | 86 | 1011.8 |
| 20260505222638 | 61 | 214 | 1.7 | 4.3 | 0.11 | 1.53 | 0.11 | 85 | 1011.8 |
| 20260505221734 | 61 | 223 | 1.7 | 3.5 | 0.07 | 1.49 | 0.07 | 85 | 1012.0 |
| 20260505220834 | 61 | 0 | 0.0 | 0.0 | 0.00 | 1.42 | 0.00 | 83 | 1011.9 |
| 20260505215956 | 61 | 0 | 0.0 | 0.0 | 0.00 | 1.42 | 0.00 | 83 | 1011.9 |
| 20260505215337 | 61 | 113 | 0.9 | 0.9 | 0.00 | 1.42 | 1.42 | 83 | 1011.9 |
| 20260505214435 | 61 | 0 | 0.0 | 0.0 | 0.00 | 1.42 | 1.42 | 83 | 1011.9 |
| 20260505213534 | 61 | 216 | 0.9 | 1.7 | 0.00 | 1.42 | 1.42 | 82 | 1012.2 |
| 20260505212657 | 61 | 130 | 0.0 | 0.9 | 0.00 | 1.42 | 1.42 | 82 | 1012.3 |
| 20260505211735 | 61 | 124 | 1.7 | 2.6 | 0.00 | 1.42 | 1.42 | 82 | 1012.3 |
| 20260505210838 | 61 | 135 | 0.9 | 0.9 | 0.00 | 1.42 | 1.42 | 83 | 1012.3 |
| 20260505205934 | 61 | 61 | 0.0 | 0.9 | 0.00 | 1.42 | 1.42 | 83 | 1012.5 |
| 20260505205355 | 61 | 132 | 0.9 | 1.7 | 0.00 | 1.42 | 1.42 | 83 | 1012.4 |
| 20260505204435 | 61 | 0 | 0.0 | 0.0 | 0.00 | 1.42 | 1.42 | 84 | 1012.4 |